This demonstration page uses our WeatherBlox Daily Observations layout. Learn more.

Left ArrowRight Arrow

34.02893, -84.19858

Hourly Observations for July 10, 2018

Temp ( °F °C ) Dew Point ( °F °C ) Humidity (%) Winds ( mph kmh ) Pressure ( in mb ) Visibility ( mi km ) Precip ( " mm )
12:53 am 00:53 Clear 72 22.2 68 20 87 87 S 3 6 30.14 1021 10 16 0.00 0.00
1:53 am 01:53 Clear 70 21.1 68 20 93 93 Calm 30.12 1020 10 16 0.00 0.00
2:53 am 02:53 Clear 70 21.1 68 20 93 93 SSW 3 6 30.11 1020 10 16 0.00 0.00
3:53 am 03:53 Clear 69 20.6 67 19.4 93 93 Calm 30.10 1019 10 16 0.00 0.00
4:53 am 04:53 Clear 69 20.6 67 19.4 93 93 Calm 30.09 1019 10 16 0.00 0.00
5:53 am 05:53 Clear 69 20.6 67 19.4 93 93 Calm 30.10 1019 10 16 0.00 0.00
6:53 am 06:53 Sunny 68 20 66 18.9 93 93 Calm 30.11 1020 10 16 0.00 0.00
7:53 am 07:53 Sunny 74 23.3 69 20.6 85 85 N 3 6 30.10 1019 10 16 0.00 0.00
8:53 am 08:53 Sunny 79 26.1 68 20 69 69 NNW 5 7 30.11 1020 10 16 0.00 0.00
9:53 am 09:53 Sunny 82 27.8 68 20 63 63 WNW 6 9 30.11 1020 10 16 0.00 0.00
10:53 am 10:53 Sunny 85 29.4 68 20 57 57 Calm 30.10 1019 10 16 0.00 0.00
11:53 am 11:53 Sunny 87 30.6 66 18.9 50 50 NNW 6 9 30.10 1019 10 16 0.00 0.00
12:53 pm 12:53 Partly Cloudy 88 31.1 67 19.4 50 50 VRB 5 7 30.09 1019 10 16 0.00 0.00
1:53 pm 13:53 Partly Cloudy 90 32.2 65 18.3 44 44 Calm 30.06 1018 10 16 0.00 0.00
2:53 pm 14:53 Mostly Sunny 91 32.8 65 18.3 42 42 NW 6 9 30.03 1017 10 16 0.00 0.00
3:53 pm 15:53 Mostly Cloudy 88 31.1 67 19.4 50 50 SW 5 7 30.02 1017 10 16 0.00 0.00
4:53 pm 16:53 Cloudy 86 30 68 20 55 55 W 3 6 30.01 1016 10 16 0.01 0.25
5:53 pm 17:53 Sunny 91 32.8 65 18.3 42 42 NW 9 15 29.98 1015 10 16 0.00 0.00
6:53 pm 18:53 Partly Cloudy 89 31.7 66 18.9 47 47 NNW 10 17 29.97 1015 10 16 0.00 0.00
7:53 pm 19:53 Sunny 88 31.1 66 18.9 48 48 NNW 7 11 29.96 1015 10 16 0.00 0.00
8:53 pm 20:53 Clear 84 28.9 68 20 59 59 NNW 6 9 29.97 1015 10 16 0.00 0.00
9:53 pm 21:53 Clear 80 26.7 69 20.6 69 69 N 3 6 29.98 1015 10 16 0.00 0.00
10:53 pm 22:53 Clear 81 27.2 69 20.6 67 67 NW 5 7 30.00 1016 10 16 0.00 0.00
11:53 pm 23:53 Clear 79 26.1 69 20.6 72 72 N 6 9 29.99 1016 10 16 0.00 0.00

Powered by AerisWeather